Voltar ao catálogo

STARLINK-30815

AtivoComunicaçõesVLEO
NORAD 58164·PAYLOAD·🇺🇸 United States

Lançado Oct 29, 2023 de Vandenberg Space Force Base

Loading…

Próximas Passagens (próximas 24 horas)

TLE

AtualizadoSource: CelesTrak SupGP

Época: Sep 15, 2026, 02:01 UTC

1 58164C 23166Q   26258.08451389 -.00024289  00000+0 -78111-3 0  2588
2 58164  53.1584  58.4928 0001076  84.5813  11.8767 15.31712228    14

Acompanhe STARLINK-30815 em tempo real com AllMySat

Download on the App Store